| time (UTC) | temp F | wind direction | speed knots | gust knots | rain 1hr in | rain 24hr in | rain mn in | humidity % | barometer mb |
| 20260502203107 | 63 | 63 | 6.1 | 11.3 | 0.00 | 0.00 | 0.00 | 94 | 1015.6 |
| 20260502201546 | 63 | 65 | 8.7 | 12.2 | 0.00 | 0.00 | 0.00 | 94 | 1015.4 |
| 20260502200043 | 63 | 65 | 9.6 | 13.0 | 0.00 | 0.00 | 0.00 | 94 | 1015.3 |
| 20260502194543 | 63 | 63 | 9.6 | 12.2 | 0.00 | 0.00 | 0.00 | 94 | 1015.2 |
| 20260502193043 | 63 | 74 | 11.3 | 12.2 | 0.00 | 0.00 | 0.00 | 94 | 1015.5 |
| 20260502191542 | 63 | 76 | 10.4 | 13.0 | 0.00 | 0.00 | 0.00 | 94 | 1015.3 |
| 20260502190040 | 63 | 69 | 8.7 | 12.2 | 0.00 | 0.00 | 0.00 | 94 | 1015.3 |
| 20260502184538 | 63 | 56 | 8.7 | 11.3 | 0.00 | 0.00 | 0.00 | 94 | 1015.2 |
| 20260502183037 | 63 | 33 | 5.2 | 10.4 | 0.00 | 0.00 | 0.00 | 95 | 1015.3 |
| 20260502181548 | 64 | 64 | 9.6 | 11.3 | 0.00 | 0.00 | 0.00 | 94 | 1015.5 |
| 20260502163023 | 64 | 60 | 7.8 | 10.4 | 0.00 | 0.00 | 0.00 | 93 | 1016.1 |
| 20260502161622 | 64 | 56 | 6.1 | 9.6 | 0.00 | 0.00 | 0.00 | 94 | 1016.4 |
| 20260502151516 | 65 | 59 | 7.0 | 10.4 | 0.00 | 0.00 | 0.00 | 93 | 1016.9 |
| 20260502123001 | 66 | 67 | 8.7 | 11.3 | 0.00 | 0.00 | 0.00 | 92 | 1018.5 |
| 20260502121559 | 66 | 56 | 6.1 | 9.6 | 0.00 | 0.00 | 0.00 | 92 | 1018.6 |
| 20260502120105 | 66 | 56 | 6.1 | 8.7 | 0.00 | 0.00 | 0.00 | 92 | 1018.7 |
| 20260502114600 | 66 | 72 | 6.1 | 9.6 | 0.00 | 0.00 | 0.00 | 92 | 1018.7 |
| 20260502113100 | 66 | 65 | 6.1 | 9.6 | 0.00 | 0.00 | 0.00 | 92 | 1018.7 |
| 20260502111554 | 66 | 61 | 7.0 | 10.4 | 0.00 | 0.00 | 0.00 | 92 | 1018.9 |
| 20260502110057 | 66 | 67 | 8.7 | 11.3 | 0.00 | 0.00 | 0.00 | 91 | 1018.9 |
| 20260502104546 | 66 | 44 | 6.1 | 10.4 | 0.00 | 0.00 | 0.00 | 91 | 1019.2 |
| 20260502103041 | 66 | 77 | 7.0 | 10.4 | 0.00 | 0.00 | 0.00 | 90 | 1019.4 |
| 20260502101544 | 65 | 60 | 7.8 | 10.4 | 0.00 | 0.00 | 0.00 | 90 | 1019.4 |
| 20260502091533 | 65 | 70 | 9.6 | 12.2 | 0.00 | 0.00 | 0.00 | 90 | 1019.5 |
| 20260502071517 | 65 | 68 | 6.1 | 9.6 | 0.00 | 0.00 | 0.00 | 91 | 1019.5 |
| 20260502070016 | 65 | 61 | 7.8 | 10.4 | 0.00 | 0.00 | 0.00 | 91 | 1019.5 |
| 20260502064534 | 64 | 65 | 8.7 | 10.4 | 0.00 | 0.00 | 0.00 | 92 | 1019.3 |
| 20260502063014 | 64 | 71 | 7.8 | 9.6 | 0.00 | 0.00 | 0.00 | 91 | 1019.4 |
| 20260502061513 | 64 | 61 | 7.0 | 9.6 | 0.00 | 0.00 | 0.00 | 90 | 1019.4 |
| 20260502060011 | 64 | 56 | 6.1 | 7.8 | 0.00 | 0.00 | 0.00 | 89 | 1019.4 |
| 20260502054511 | 64 | 65 | 0.9 | 3.5 | 0.00 | 0.00 | 0.00 | 90 | 1019.3 |
| 20260502053010 | 64 | 43 | 0.9 | 1.7 | 0.00 | 0.00 | 0.00 | 90 | 1019.3 |
| 20260502051508 | 64 | 36 | 0.0 | 2.6 | 0.00 | 0.00 | 0.00 | 90 | 1019.2 |
| 20260502050017 | 63 | 26 | 0.0 | 4.3 | 0.00 | 0.00 | 0.00 | 90 | 1019.1 |
| 20260502044509 | 63 | 11 | 0.9 | 4.3 | 0.00 | 0.00 | 0.00 | 91 | 1019.0 |
| 20260502043007 | 64 | 33 | 1.7 | 2.6 | 0.00 | 0.00 | 0.00 | 90 | 1018.9 |
| 20260502041505 | 64 | 36 | 1.7 | 2.6 | 0.00 | 0.00 | 0.00 | 91 | 1019.2 |
| 20260502040005 | 64 | 11 | 0.9 | 3.5 | 0.00 | 0.00 | 0.00 | 92 | 1019.2 |
| 20260502034505 | 63 | 333 | 1.7 | 0.0 | 0.00 | 0.00 | 0.00 | 92 | 1019.3 |
| 20260502033003 | 63 | 302 | 0.9 | 3.5 | 0.00 | 0.00 | 0.00 | 92 | 1019.3 |
| 20260502031502 | 63 | 302 | 0.9 | 4.3 | 0.00 | 0.00 | 0.00 | 93 | 1019.3 |
| 20260502030003 | 63 | 288 | 0.9 | 3.5 | 0.00 | 0.00 | 0.00 | 93 | 1019.6 |
| 20260502024501 | 63 | 331 | 2.6 | 4.3 | 0.00 | 0.00 | 0.00 | 93 | 1019.3 |
| 20260502023100 | 63 | 34 | 3.5 | 5.2 | 0.00 | 0.00 | 0.00 | 93 | 1019.2 |
| 20260502021559 | 63 | 21 | 3.5 | 6.1 | 0.00 | 0.00 | 0.00 | 93 | 1019.4 |
| 20260502020112 | 64 | 68 | 7.0 | 8.7 | 0.00 | 0.00 | 0.00 | 93 | 1019.3 |
| 20260502014557 | 64 | 69 | 3.5 | 5.2 | 0.00 | 0.00 | 0.00 | 92 | 1019.5 |
| 20260502013053 | 64 | 74 | 2.6 | 6.1 | 0.00 | 0.00 | 0.00 | 90 | 1019.6 |
| 20260502011554 | 64 | 68 | 6.1 | 8.7 | 0.00 | 0.00 | 0.00 | 89 | 1019.7 |
| 20260502010050 | 64 | 76 | 5.2 | 7.8 | 0.00 | 0.00 | 0.00 | 89 | 1020.0 |
| 20260502004554 | 64 | 46 | 4.3 | 7.8 | 0.00 | 0.00 | 0.00 | 90 | 1020.1 |
| 20260502003049 | 64 | 62 | 4.3 | 8.7 | 0.00 | 0.00 | 0.00 | 90 | 1020.3 |
| 20260502001622 | 64 | 58 | 5.2 | 7.8 | 0.00 | 0.00 | 0.00 | 90 | 1020.5 |
| 20260502000042 | 64 | 51 | 4.3 | 8.7 | 0.00 | 0.00 | 0.00 | 91 | 1020.6 |
| 20260501234540 | 64 | 50 | 5.2 | 10.4 | 0.00 | 0.00 | 0.00 | 91 | 1020.8 |
| 20260501233038 | 64 | 68 | 8.7 | 12.2 | 0.00 | 0.00 | 0.00 | 91 | 1020.8 |
| 20260501231538 | 64 | 46 | 7.8 | 12.2 | 0.00 | 0.00 | 0.00 | 90 | 1020.8 |
| 20260501230035 | 64 | 61 | 7.8 | 11.3 | 0.00 | 0.00 | 0.00 | 91 | 1020.7 |
| 20260501224538 | 64 | 74 | 9.6 | 13.0 | 0.00 | 0.00 | 0.00 | 91 | 1020.7 |
| 20260501223032 | 64 | 68 | 10.4 | 13.9 | 0.00 | 0.00 | 0.00 | 91 | 1020.7 |
| 20260501221528 | 64 | 70 | 11.3 | 15.6 | 0.00 | 0.00 | 0.00 | 91 | 1020.7 |
| 20260501220026 | 64 | 47 | 9.6 | 13.0 | 0.00 | 0.00 | 0.00 | 92 | 1020.8 |
| 20260501214526 | 64 | 70 | 7.0 | 10.4 | 0.00 | 0.00 | 0.00 | 92 | 1021.0 |
| 20260501213023 | 64 | 83 | 4.3 | 8.7 | 0.00 | 0.00 | 0.00 | 93 | 1021.1 |
| 20260501211523 | 64 | 90 | 7.8 | 13.9 | 0.00 | 0.00 | 0.00 | 93 | 1020.9 |
| 20260501210030 | 64 | 70 | 10.4 | 13.9 | 0.00 | 0.00 | 0.00 | 93 | 1020.7 |
| 20260501204520 | 64 | 70 | 8.7 | 12.2 | 0.00 | 0.00 | 0.00 | 93 | 1020.8 |